Tracking 19246 objects as of 21-Sep-2018
HD Live streaming from Space Station
objects crossing your sky now

FENGYUN 1C DEB

Track FENGYUN 1C DEB now!
10-day predictions


NORAD ID: 31150
Int'l Code: 1999-025BHC
Perigee: 850.0 km
Apogee: 873.9 km
Inclination: 98.9 °
Period: 102.0 minutes
Semi major axis: 7232 km
RCS: 0.008 m2 (small)
Launch date: May 10, 1999
Source: People's Republic of China (PRC)
Launch site: Taiyaun Space Center, China (TSC)

Note: This is SATELLITE DEBRIS
aabbcc
Your satellite tracking list
Your tracking list is empty




NASA's NSSDC Master Catalog

Two Line Element Set (TLE):
1 31150U 99025BHC 18263.54882831 +.00000053 +00000-0 +53974-4 0  9994
2 31150 098.9131 290.9795 0016497 091.1638 063.4445 14.11340448590447
Source of the keplerian elements: AFSPC